NOAA 16 DEB

Satellite information

Favourite Embed

Satellite Type and Status

DEBRISDECAYED

Key statistics

Satellite NOAA 16 DEB at a glance.

Uptime

9172

Days in orbit

Revolutions

≈ 15.4

Per day

Orbit

SSO

Sun Synchronous Orbit

Inclination

99.0

Latest

Satellite identification and parameters

Extended collection of information and parameters for NOAA 16 DEB.

Object identification

Identified? True

Debris? True

Object name: NOAA 16 DEB

International designator: 2000-055LN

Object number (NORAD): 41433

Object ID (CCSDS): 41433

Country: UNITED STATES OF AMERICA (US)

Current information (Y/N): Y

RCS size: SMALL

Orbital parameters

Decay date: Nov. 1, 2025

Period: 93.71 minutes

Inclination: 98.9763 deg

SMA: 6834.138 km

Apoapsis: 466.648 km

Periapsis: 445.358 km

RAAN: 180.1019 deg

Eccentricy: 0.0015576

Argument of periapsis: 86.3335 deg

Mean anomaly: 273.9685 deg

Mean motion: 15.36657755 rev/day

Mean motion (dot): 0.00770476 rev/day2

B* drag term: 0.019717 1/REarth

Two-line elements (TLE)

Creation date: Nov. 3, 2025, 4:36 a.m.

Reference frame: TEME

Reference center: EARTH

Epoch: Oct. 14, 2025, 3:54 a.m. UTC

TLE line 0: 0 NOAA 16 DEB

TLE line 1: 1 41433U 00055LN 25287.16296352 .00770476 00000-0 19717-1 0 9990

TLE line 2: 2 41433 98.9763 180.1019 0015576 86.3335 273.9685 15.36657755507834

Live tracking on map

Satellite NOAA 16 DEB has decayed and is no longer in orbit. No tracking available.

In-orbit conjunctions

Satellite NOAA 16 DEB has decayed and is no longer in orbit. No conjunctions available.

Associated space launch

The NOAA K, L and M POES satellites begin the fifth generation of improved environmental monitoring in support of NOAA missions. The instrument payload has significant improvements and additions/deletions. The instrument changes have effected the spacecraft subsystems and data formats.

NOAA 16 DEB was lifted into orbit during the mission ‘Titan II SLV | NOAA 16’, on board a Titan II SLV space rocket.

The launch took place on Sept. 21, 2000, 10:22 a.m. from Space Launch Complex 4W.

For more information about the launch, click the button.

Launch to space Titan II SLV | NOAA 16
Titan II SLV | NOAA 16

Agency: N/A

Status: Launch Successful

Launch date: Sept. 21, 2000, 10:22 a.m. UTC

Rocket: Titan II SLV

Launch pad: Space Launch Complex 4W

Location: Vandenberg SFB, CA, USA

...

Latest news about this satellite

There are no fresh news available about this satellite. Check back as we update our databases every day.


Newsletter sign-up

Weekly statistics, charts and insights to help you stay on top of the space industry.